EW5231 Weather Reports


time (UTC)temp
F
wind
direction
speed
knots
gust
knots
rain 1hr
in
rain 24hr
in
rain mn
in
humidity
%
barometer
mb
20260509131501 47 177 2.6 10.4 0.00 0.00 0.00 48 1012.5
20260509130106 46 126 4.3 9.6 0.00 0.00 0.00 51 1012.6
20260509124611 45 139 1.7 9.6 0.00 0.00 0.00 52 1012.8
20260509123058 44 131 4.3 13.9 0.00 0.00 0.00 55 1012.8
20260509121551 44 168 3.5 11.3 0.00 0.00 0.00 57 1012.9
20260509120055 43 188 2.6 8.7 0.00 0.00 0.00 55 1012.9
20260509114543 41 152 4.3 10.4 0.00 0.00 0.00 58 1013.0
20260509113039 41 200 3.5 8.7 0.00 0.00 0.00 60 1012.9
20260509111535 40 126 3.5 6.1 0.00 0.00 0.00 62 1012.9
20260509110032 39 138 2.6 7.0 0.00 0.00 0.00 63 1012.8
20260509104534 38 174 2.6 9.6 0.00 0.00 0.00 66 1012.9
20260509103022 37 117 3.5 6.1 0.00 0.00 0.00 67 1012.7
20260509101520 36 121 2.6 5.2 0.00 0.00 0.00 67 1012.5
20260509100029 36 123 2.6 6.1 0.00 0.00 0.00 70 1012.4
20260509094521 35 138 1.7 5.2 0.00 0.00 0.00 71 1012.4
20260509093014 35 119 1.7 3.5 0.00 0.00 0.00 71 1012.3
20260509091513 36 108 1.7 6.1 0.00 0.00 0.00 71 1012.0
20260509090012 36 132 2.6 6.1 0.00 0.00 0.00 71 1011.9
20260509084515 35 134 3.5 7.0 0.00 0.00 0.00 73 1012.0
20260509083008 35 119 1.7 3.5 0.00 0.00 0.00 72 1012.0
20260509081512 35 121 2.6 5.2 0.00 0.00 0.00 74 1012.1
20260509080006 34 117 2.6 7.0 0.00 0.00 0.00 74 1012.1
20260509074504 34 111 2.6 5.2 0.00 0.00 0.00 75 1012.0
20260509073101 35 123 1.7 5.2 0.00 0.00 0.00 73 1012.2
20260509071610 36 163 0.9 4.3 0.00 0.00 0.00 70 1012.2
20260509070056 36 118 1.7 5.2 0.00 0.00 0.00 71 1012.2
20260509064604 35 129 0.9 2.6 0.00 0.00 0.00 73 1012.2
20260509063054 35 131 1.7 3.5 0.00 0.00 0.00 72 1012.2
20260509061524 36 123 1.7 6.1 0.00 0.00 0.00 70 1012.2
20260509060023 36 134 1.7 5.2 0.00 0.00 0.00 70 1012.4
20260509054619 36 135 1.7 2.6 0.00 0.00 0.00 69 1012.4
20260509053019 36 129 0.9 3.5 0.00 0.00 0.00 70 1012.2
20260509051528 36 135 1.7 3.5 0.00 0.00 0.00 69 1012.1
20260509050020 36 179 1.7 3.5 0.00 0.00 0.00 68 1012.1
20260509044550 36 130 1.7 2.6 0.00 0.00 0.00 66 1012.0
20260509043045 36 131 1.7 3.5 0.00 0.00 0.00 64 1012.0
20260509041542 37 127 0.9 2.6 0.00 0.00 0.00 60 1012.0
20260509040041 37 140 1.7 2.6 0.00 0.00 0.00 58 1012.0
20260509034544 37 125 0.9 3.5 0.00 0.00 0.00 57 1012.0
20260509033040 37 158 1.7 2.6 0.00 0.00 0.00 57 1012.0
20260509031539 37 171 0.9 1.7 0.00 0.00 0.00 56 1011.8
20260509030035 36 171 0.9 1.7 0.00 0.00 0.00 58 1011.5
20260509024534 36 171 0.9 1.7 0.00 0.00 0.00 58 1011.5
20260509023036 36 171 0.9 2.6 0.00 0.00 0.00 61 1011.4
20260509021529 36 171 0.9 1.7 0.00 0.00 0.00 57 1011.4
20260509020027 37 171 0.0 0.9 0.00 0.00 0.00 60 1011.3
20260509014527 37 171 0.0 1.7 0.00 0.00 0.00 58 1011.2
20260509013035 38 171 0.9 1.7 0.00 0.00 0.00 56 1011.0
20260509011521 38 171 0.9 1.7 0.00 0.00 0.00 60 1010.8
20260509010019 38 171 0.9 1.7 0.00 0.00 0.00 62 1010.6
20260509004517 39 171 0.9 1.7 0.00 0.00 0.00 60 1010.5
20260509003020 40 171 0.9 1.7 0.00 0.00 0.00 57 1010.3
20260509001512 42 219 0.0 1.7 0.00 0.00 0.00 54 1010.1
20260509000011 42 270 0.0 1.7 0.00 0.00 0.00 48 1010.0
20260508234508 43 69 0.0 2.6 0.00 0.00 0.00 47 1009.9
20260508233008 43 309 0.0 1.7 0.00 0.00 0.00 48 1009.7
20260508231505 44 351 0.9 3.5 0.00 0.00 0.00 47 1009.7
20260508230012 44 329 1.7 5.2 0.00 0.00 0.00 45 1009.5
20260508224510 44 300 0.9 5.2 0.00 0.00 0.00 45 1009.7
20260508223010 44 345 2.6 5.2 0.00 0.00 0.00 44 1009.7
20260508221606 45 269 3.5 8.7 0.00 0.00 0.00 44 1009.6
20260508220104 45 336 1.7 7.8 0.00 0.00 0.00 46 1009.4
20260508214557 45 275 0.9 5.2 0.00 0.00 0.00 45 1009.4
20260508213115 45 275 2.6 11.3 0.00 0.00 0.00 46 1009.4
20260508211526 46 298 3.5 8.7 0.00 0.00 0.00 44 1009.2
20260508210026 46 281 4.3 10.4 0.00 0.00 0.00 44 1009.0
20260508204523 46 75 3.5 10.4 0.00 0.00 0.00 45 1009.0
20260508203021 45 298 3.5 8.7 0.00 0.00 0.00 44 1008.9
20260508201523 46 305 4.3 9.6 0.00 0.00 0.00 45 1009.0
20260508200018 46 292 3.5 7.8 0.00 0.00 0.00 45 1008.9
20260508194548 45 242 2.6 9.6 0.00 0.00 0.00 44 1008.9
20260508193120 46 311 3.5 11.3 0.00 0.00 0.00 45 1008.9
20260508191543 44 271 2.6 9.6 0.00 0.00 0.00 47 1008.9
20260508190042 44 299 4.3 7.8 0.00 0.00 0.00 45 1008.8
20260508184553 44 321 3.5 9.6 0.00 0.00 0.00 46 1009.0
20260508183043 44 265 5.2 10.4 0.00 0.00 0.00 46 1008.9
20260508181538 44 291 3.5 11.3 0.00 0.00 0.00 47 1009.0
20260508180037 44 322 3.5 9.6 0.00 0.00 0.00 45 1008.9
20260508174554 43 252 5.2 9.6 0.00 0.00 0.00 49 1009.1
20260508173036 43 292 4.3 13.0 0.00 0.00 0.00 48 1009.0
20260508171543 44 272 5.2 11.3 0.00 0.00 0.00 47 1009.1
20260508170005 42 312 2.6 10.4 0.00 0.00 0.00 52 1009.0
20260508164504 42 316 4.3 9.6 0.00 0.00 0.00 49 1009.0
20260508163100 42 259 3.5 10.4 0.00 0.00 0.00 50 1009.1
20260508161603 43 255 5.2 9.6 0.00 0.00 0.00 50 1009.1
20260508154556 42 300 5.2 12.2 0.00 0.00 0.00 53 1009.0
20260508153035 43 265 6.1 10.4 0.00 0.00 0.00 55 1009.0
20260508151535 42 285 4.3 9.6 0.00 0.00 0.00 58 1009.0
20260508150023 41 351 2.6 11.3 0.00 0.00 0.00 61 1009.0
20260508144517 41 306 3.5 8.7 0.00 0.00 0.00 63 1008.8
20260508143016 39 283 3.5 9.6 0.00 0.00 0.00 66 1008.9
20260508141516 40 360 7.0 18.2 0.00 0.00 0.00 63 1008.9
20260508140012 40 292 3.5 8.7 0.00 0.00 0.00 64 1008.8
20260508134510 41 288 3.5 7.8 0.00 0.00 0.00 60 1008.6
20260508133010 40 302 3.5 12.2 0.00 0.00 0.00 61 1008.5